FW3572 Weather Reports


Display with metric or nautical units.
time (UTC)temp
F
wind
direction
speed
MPH
gust
MPH
rain 1hr
in
rain 24hr
in
rain mn
in
humidity
%
barometer
mb
20260905072054 80 209 0.0 0.0 0.00 0.03 0.00 100 1015.7
20260905071555 80 209 0.0 1.0 0.00 0.03 0.00 100 1015.5
20260905071054 80 209 0.0 2.0 0.00 0.03 0.00 100 1015.6
20260905070553 80 209 0.0 2.0 0.00 0.03 0.00 100 1015.7
20260905070107 80 209 0.0 2.0 0.00 0.03 0.00 100 1015.7
20260905065552 80 209 0.0 2.0 0.00 0.03 0.00 100 1015.8
20260905065051 80 209 0.0 2.0 0.00 0.03 0.00 100 1015.8
20260905064551 80 209 0.0 2.0 0.00 0.03 0.00 100 1015.8
20260905064051 80 209 0.0 3.0 0.00 0.03 0.00 100 1015.8
20260905063550 80 209 0.0 3.0 0.00 0.03 0.00 100 1015.9
20260905063049 80 208 0.0 0.0 0.00 0.03 0.00 100 1016.0
20260905062549 80 208 0.0 0.0 0.00 0.03 0.00 100 1016.1
20260905062049 80 208 0.0 0.0 0.00 0.03 0.00 100 1016.1
20260905061600 80 208 0.0 0.0 0.00 0.03 0.00 100 1016.1
20260905061048 81 208 0.0 0.0 0.00 0.03 0.00 100 1016.2
20260905060547 81 208 0.0 0.0 0.00 0.03 0.00 100 1016.2
20260905060047 81 208 0.0 0.0 0.00 0.03 0.00 100 1016.2
20260905055545 81 208 0.0 0.0 0.00 0.03 0.00 100 1016.5
20260905055044 81 208 0.0 0.0 0.00 0.03 0.00 100 1016.5
20260905054550 81 208 0.0 0.0 0.00 0.03 0.00 100 1016.6
20260905054044 81 208 0.0 0.0 0.00 0.03 0.00 100 1016.7
20260905053542 81 208 0.0 0.0 0.00 0.03 0.00 100 1016.7
20260905053045 81 208 0.0 0.0 0.00 0.03 0.00 100 1016.8
20260905052540 81 208 0.0 0.0 0.00 0.03 0.00 100 1016.9
20260905052043 82 208 0.0 0.0 0.00 0.03 0.00 100 1017.0
20260905051544 82 208 0.0 0.0 0.00 0.03 0.00 100 1017.0
20260905051039 82 208 0.0 0.0 0.00 0.03 0.00 100 1017.0
20260905050541 82 207 0.0 0.0 0.00 0.03 0.00 100 1017.1
20260905050045 82 207 0.0 0.0 0.00 0.03 0.00 100 1017.2
20260905045540 82 207 0.0 0.0 0.00 0.03 0.00 100 1017.3
20260905045038 82 207 0.0 0.0 0.00 0.03 0.00 100 1017.1
20260905044540 82 207 0.0 0.0 0.00 0.03 0.00 100 1017.2
20260905044041 82 207 0.0 0.0 0.00 0.03 0.00 100 1017.1
20260905043537 82 207 0.0 0.0 0.00 0.03 0.00 100 1017.1
20260905043039 82 207 0.0 0.0 0.00 0.03 0.00 100 1017.1
20260905042540 82 207 0.0 0.0 0.00 0.03 0.00 100 1017.0
20260905042035 82 205 0.0 0.0 0.00 0.03 0.00 100 1017.1
20260905041541 82 159 0.0 2.0 0.00 0.03 0.00 100 1017.1
20260905041035 83 159 0.0 5.0 0.00 0.03 0.00 100 1017.1
20260905040535 83 135 0.0 7.0 0.00 0.03 0.00 100 1017.1
20260905040036 83 163 2.0 7.0 0.00 0.03 0.00 100 1017.0
20260905035535 83 167 1.0 5.0 0.00 0.03 0.00 100 1017.1
20260905035033 82 162 1.0 5.0 0.00 0.03 0.00 100 1017.2
20260905034538 83 166 1.0 5.0 0.00 0.03 0.03 100 1017.2
20260905034032 83 166 2.0 5.0 0.00 0.03 0.03 100 1017.3
20260905033534 83 165 1.0 5.0 0.00 0.03 0.03 100 1017.3
20260905033043 83 164 1.0 5.0 0.00 0.03 0.03 100 1017.2
20260905032533 83 161 1.0 5.0 0.00 0.03 0.03 100 1017.1
20260905032032 83 161 1.0 5.0 0.00 0.03 0.03 100 1017.1
20260905031539 83 162 1.0 5.0 0.00 0.03 0.03 100 1017.1
20260905031034 83 163 2.0 5.0 0.00 0.03 0.03 100 1017.1
20260905030532 83 166 1.0 4.0 0.00 0.03 0.03 100 1017.1
20260905030039 83 184 1.0 3.0 0.00 0.03 0.03 100 1017.1
20260905025532 83 185 1.0 4.0 0.00 0.03 0.03 100 1017.2
20260905025031 83 187 1.0 4.0 0.00 0.03 0.03 100 1017.1
20260905024531 83 192 0.0 2.0 0.00 0.03 0.03 100 1017.0
20260905024030 83 192 0.0 3.0 0.00 0.03 0.03 100 1016.9
20260905023531 83 194 1.0 3.0 0.00 0.03 0.03 100 1017.0
20260905023033 83 194 0.0 2.0 0.00 0.03 0.03 100 1017.1
20260905022534 83 194 0.0 2.0 0.00 0.03 0.03 100 1017.0
20260905022033 83 194 0.0 2.0 0.00 0.03 0.03 100 1017.1
20260905021531 83 194 1.0 2.0 0.00 0.03 0.03 100 1017.2
20260905021032 83 195 0.0 2.0 0.00 0.03 0.03 100 1017.2
20260905020631 83 195 0.0 2.0 0.00 0.03 0.03 100 1017.2
20260905020030 84 194 0.0 3.0 0.00 0.03 0.03 100 1017.2
20260905015529 84 194 0.0 3.0 0.00 0.03 0.03 100 1017.1
20260905015033 84 194 0.0 0.0 0.00 0.03 0.03 100 1017.1
20260905014529 84 194 0.0 0.0 0.00 0.03 0.03 100 1017.1
20260905014028 84 194 0.0 0.0 0.00 0.03 0.03 100 1017.0
20260905013532 84 194 0.0 0.0 0.00 0.03 0.03 100 1017.0
20260905013028 84 194 0.0 0.0 0.00 0.03 0.03 100 1017.0
20260905012528 84 194 0.0 2.0 0.00 0.03 0.03 100 1017.0
20260905012029 84 194 0.0 2.0 0.00 0.03 0.03 100 1017.1
20260905011528 84 194 0.0 2.0 0.00 0.03 0.03 100 1017.1
20260905011028 84 192 0.0 2.0 0.00 0.03 0.03 100 1017.0
20260905010529 84 192 0.0 4.0 0.00 0.03 0.03 100 1017.1
20260905010028 84 191 1.0 4.0 0.00 0.03 0.03 100 1016.9
20260905005528 85 186 1.0 3.0 0.00 0.03 0.03 100 1016.9
20260905005027 85 221 1.0 4.0 0.00 0.03 0.03 100 1016.9
20260905004528 85 192 1.0 5.0 0.00 0.03 0.03 100 1016.8
20260905004030 85 191 1.0 8.0 0.00 0.03 0.03 100 1016.8
20260905003530 85 200 2.0 8.0 0.00 0.03 0.03 100 1016.9
20260905003027 85 167 4.0 8.0 0.00 0.03 0.03 100 1016.9
20260905002525 85 144 3.0 8.0 0.00 0.03 0.03 100 1016.7
20260905002027 85 163 2.0 8.0 0.00 0.03 0.03 100 1016.7
20260905001527 85 166 4.0 9.0 0.00 0.03 0.03 100 1016.6
20260905001025 85 132 3.0 9.0 0.00 0.03 0.03 100 1016.6
20260905000526 85 139 4.0 9.0 0.00 0.03 0.03 100 1016.5
20260905000026 85 142 3.0 11.0 0.00 0.03 0.03 100 1016.6
20260904235526 85 169 6.0 11.0 0.00 0.03 0.03 100 1016.5
20260904235025 85 176 2.0 10.0 0.00 0.03 0.03 100 1016.3
20260904234536 85 168 5.0 10.0 0.00 0.03 0.03 100 1016.2
20260904234025 85 150 3.0 12.0 0.00 0.03 0.03 100 1016.2
20260904233524 85 167 4.0 12.0 0.00 0.03 0.03 100 1016.2
20260904233025 85 153 6.0 13.0 0.00 0.03 0.03 100 1016.1
20260904232524 85 163 3.0 9.0 0.00 0.03 0.03 100 1016.0
20260904232026 85 184 3.0 13.0 0.00 0.03 0.03 100 1016.2
20260904231524 85 184 6.0 13.0 0.00 0.03 0.03 100 1016.2
20260904231023 86 165 4.0 12.0 0.00 0.03 0.03 100 1016.0
20260904230524 86 141 6.0 15.0 0.00 0.03 0.03 100 1016.0
20260904230023 86 168 5.0 18.0 0.00 0.03 0.03 100 1016.0
20260904225522 86 153 11.0 18.0 0.00 0.03 0.03 100 1016.1
20260904225025 86 157 6.0 14.0 0.00 0.03 0.03 100 1016.0
20260904224522 86 128 2.0 14.0 0.00 0.03 0.03 100 1015.8
20260904224026 86 140 5.0 16.0 0.00 0.03 0.03 100 1015.6
20260904223522 86 139 7.0 16.0 0.00 0.03 0.03 100 1015.5
20260904223022 86 159 5.0 13.0 0.00 0.03 0.03 100 1015.5
20260904222521 86 186 9.0 13.0 0.00 0.03 0.03 100 1015.5
20260904222021 86 146 8.0 16.0 0.00 0.03 0.03 100 1015.6
20260904221523 86 150 7.0 16.0 0.00 0.03 0.03 100 1015.6
20260904221022 87 158 5.0 14.0 0.00 0.03 0.03 100 1015.5
20260904220523 87 158 6.0 18.0 0.00 0.03 0.03 100 1015.4
20260904220021 87 142 7.0 18.0 0.00 0.03 0.03 100 1015.5
20260904215519 87 153 6.0 15.0 0.00 0.03 0.03 100 1015.6
20260904215019 87 156 5.0 18.0 0.00 0.03 0.03 100 1015.5
20260904214522 87 167 7.0 18.0 0.00 0.03 0.03 100 1015.7
20260904214019 87 138 6.0 17.0 0.00 0.03 0.03 100 1015.7
20260904213519 88 143 4.0 15.0 0.00 0.03 0.03 100 1015.7
20260904213018 87 146 8.0 16.0 0.00 0.03 0.03 100 1015.8
20260904212518 87 136 8.0 18.0 0.00 0.03 0.03 100 1015.8
20260904212019 88 145 10.0 18.0 0.00 0.03 0.03 100 1015.8
20260904211518 88 142 7.0 15.0 0.00 0.03 0.03 100 1015.9
20260904211018 88 151 7.0 15.0 0.00 0.03 0.03 100 1016.1
20260904210520 88 167 6.0 14.0 0.00 0.03 0.03 100 1016.2
20260904210019 87 126 7.0 14.0 0.00 0.03 0.03 100 1016.2
20260904205517 87 159 8.0 16.0 0.00 0.03 0.03 100 1016.1
20260904205016 87 136 9.0 17.0 0.00 0.03 0.03 100 1016.2
20260904204518 88 168 7.0 14.0 0.00 0.03 0.03 100 1016.2
20260904204015 88 150 8.0 16.0 0.00 0.03 0.03 100 1016.4
20260904203515 88 132 8.0 16.0 0.00 0.03 0.03 100 1016.3
20260904203016 88 149 4.0 15.0 0.00 0.03 0.03 100 1016.2
20260904202517 87 144 5.0 15.0 0.00 0.03 0.03 100 1016.2
20260904202017 87 146 6.0 13.0 0.00 0.03 0.03 100 1016.1
20260904201513 87 185 3.0 13.0 0.00 0.03 0.03 100 1016.0
20260904201014 87 121 3.0 13.0 0.00 0.03 0.03 100 1016.0
20260904200518 87 148 5.0 13.0 0.00 0.03 0.03 100 1016.1
20260904200016 87 133 3.0 10.0 0.00 0.03 0.03 100 1016.2
20260904195513 87 122 4.0 12.0 0.00 0.03 0.03 100 1016.3
20260904195012 87 162 5.0 12.0 0.00 0.03 0.03 100 1016.3
20260904194512 88 117 5.0 14.0 0.00 0.03 0.03 100 1016.4
20260904194012 87 159 7.0 14.0 0.01 0.03 0.03 100 1016.4
20260904193513 87 109 4.0 12.0 0.02 0.03 0.03 100 1016.5
20260904193013 86 148 5.0 12.0 0.02 0.03 0.03 100 1016.8
20260904192513 86 151 4.0 11.0 0.02 0.03 0.03 100 1016.9
20260904192016 86 127 4.0 12.0 0.03 0.03 0.03 100 1016.9
20260904191518 86 133 7.0 12.0 0.03 0.03 0.03 100 1016.9
20260904191012 86 157 4.0 12.0 0.03 0.03 0.03 100 1017.0
20260904190512 85 144 3.0 11.0 0.03 0.03 0.03 100 1017.0
20260904190015 84 147 5.0 11.0 0.03 0.03 0.03 100 1017.0
20260904185512 84 144 4.0 10.0 0.03 0.03 0.03 100 1017.1
20260904185012 83 116 2.0 8.0 0.03 0.03 0.03 100 1017.1
20260904184511 82 112 2.0 9.0 0.03 0.03 0.03 100 1017.1
20260904184011 82 184 5.0 9.0 0.02 0.02 0.02 100 1017.3
20260904183511 82 157 4.0 11.0 0.01 0.01 0.01 100 1017.3
20260904183010 82 171 6.0 13.0 0.01 0.01 0.01 100 1017.4
20260904182513 83 179 4.0 16.0 0.01 0.01 0.01 100 1017.4
20260904182011 84 196 7.0 19.0 0.00 0.00 0.00 100 1017.4
20260904181509 85 149 11.0 19.0 0.00 0.00 0.00 100 1017.3
20260904181013 86 157 7.0 15.0 0.00 0.00 0.00 100 1017.4
20260904180510 87 159 6.0 14.0 0.00 0.00 0.00 100 1017.4
20260904180008 88 145 7.0 14.0 0.00 0.00 0.00 100 1017.5
20260904175507 89 115 7.0 15.0 0.00 0.00 0.00 100 1017.6
20260904175005 89 167 7.0 12.0 0.00 0.00 0.00 100 1017.6
20260904174504 89 51 6.0 14.0 0.00 0.00 0.00 100 1017.6
20260904174002 89 165 6.0 14.0 0.00 0.00 0.00 100 1017.6
20260904173501 90 153 4.0 14.0 0.00 0.00 0.00 100 1017.6
20260904173103 89 127 5.0 14.0 0.00 0.00 0.00 100 1017.6
20260904172558 88 132 4.0 13.0 0.00 0.00 0.00 100 1017.6
20260904172057 89 133 3.0 12.0 0.00 0.00 0.00 100 1017.7
20260904171601 89 123 5.0 11.0 0.00 0.00 0.00 100 1017.8
20260904171055 89 122 4.0 15.0 0.00 0.00 0.00 100 1017.7
20260904170552 89 125 6.0 15.0 0.00 0.00 0.00 100 1017.7
20260904170054 89 109 4.0 9.0 0.00 0.00 0.00 100 1017.7
20260904165549 90 110 3.0 11.0 0.00 0.00 0.00 100 1017.8
20260904165048 90 155 5.0 11.0 0.00 0.00 0.00 100 1017.9
20260904164548 89 124 4.0 8.0 0.00 0.00 0.00 100 1017.9
20260904164044 89 146 4.0 11.0 0.00 0.00 0.00 100 1017.9
20260904163543 90 132 5.0 9.0 0.00 0.00 0.00 100 1018.1
20260904163044 91 170 1.0 7.0 0.00 0.00 0.00 100 1018.0
20260904162540 91 133 3.0 9.0 0.00 0.00 0.00 100 1017.9
20260904162038 90 211 4.0 9.0 0.00 0.00 0.00 100 1017.9
20260904161539 91 240 1.0 6.0 0.00 0.00 0.00 100 1017.9
20260904161035 90 289 2.0 10.0 0.00 0.00 0.00 100 1018.1
20260904160534 89 246 5.0 10.0 0.00 0.00 0.00 100 1018.3
20260904160046 90 206 2.0 7.0 0.00 0.00 0.00 100 1018.3
20260904155532 89 167 3.0 12.0 0.00 0.00 0.00 100 1018.5
20260904155029 89 169 6.0 12.0 0.00 0.00 0.00 100 1018.5
20260904154534 90 170 2.0 8.0 0.00 0.00 0.00 100 1018.6
20260904154030 90 203 3.0 8.0 0.00 0.00 0.00 100 1018.5
20260904153525 89 186 4.0 8.0 0.00 0.00 0.00 100 1018.4
20260904153024 89 181 3.0 8.0 0.00 0.00 0.00 100 1018.4
20260904152523 89 190 3.0 8.0 0.00 0.00 0.00 100 1018.4
20260904152020 89 234 2.0 8.0 0.00 0.00 0.00 100 1018.5
20260904151525 88 170 4.0 10.0 0.00 0.00 0.00 100 1018.5
20260904151019 88 193 3.0 10.0 0.00 0.00 0.00 100 1018.5
20260904150518 88 159 5.0 10.0 0.00 0.00 0.00 100 1018.5
20260904150031 88 247 3.0 11.0 0.00 0.00 0.00 100 1018.5
20260904145515 87 241 5.0 11.0 0.00 0.00 0.00 100 1018.4
20260904145011 88 208 4.0 8.0 0.00 0.00 0.00 100 1018.4
20260904144510 88 154 3.0 9.0 0.00 0.00 0.00 100 1018.2
20260904144008 88 175 3.0 8.0 0.00 0.00 0.00 100 1018.2
20260904143507 87 161 4.0 8.0 0.00 0.00 0.00 100 1018.2
20260904143006 87 229 1.0 6.0 0.00 0.00 0.00 100 1018.1
20260904142504 87 203 2.0 10.0 0.00 0.00 0.00 100 1018.1
20260904142001 87 204 3.0 9.0 0.00 0.00 0.00 100 1018.1
20260904141605 87 155 3.0 10.0 0.00 0.00 0.00 100 1018.0
20260904141500 87 159 2.0 10.0 0.00 0.00 0.00 100 1018.0
20260904141059 86 230 3.0 10.0 0.00 0.00 0.00 100 1017.8
20260904140559 86 205 2.0 7.0 0.00 0.00 0.00 100 1017.8
20260904140105 86 186 1.0 7.0 0.00 0.00 0.00 100 1017.7
20260904135558 86 208 2.0 7.0 0.00 0.00 0.00 100 1017.7
20260904135055 86 233 3.0 7.0 0.00 0.00 0.00 100 1017.6
20260904134603 86 217 2.0 10.0 0.00 0.00 0.00 100 1017.7
20260904134050 86 233 2.0 10.0 0.00 0.00 0.00 100 1017.8
20260904133549 85 202 2.0 7.0 0.00 0.00 0.00 100 1017.8
20260904133053 85 228 2.0 8.0 0.00 0.00 0.00 100 1017.8
20260904132546 85 235 2.0 7.0 0.00 0.00 0.00 100 1017.8
20260904132047 85 235 2.0 9.0 0.00 0.00 0.00 100 1017.7
20260904131546 85 221 3.0 9.0 0.00 0.00 0.00 100 1017.6
20260904131044 84 219 2.0 7.0 0.00 0.00 0.00 100 1017.6
20260904130541 84 212 2.0 7.0 0.00 0.00 0.00 100 1017.5
20260904130050 84 218 0.0 6.0 0.00 0.00 0.00 100 1017.5
20260904125539 83 211 1.0 5.0 0.00 0.00 0.00 100 1017.5
20260904125038 83 192 2.0 5.0 0.00 0.00 0.00 100 1017.4
20260904124538 82 167 2.0 4.0 0.00 0.00 0.00 100 1017.3
20260904124037 82 200 0.0 3.0 0.00 0.00 0.00 100 1017.4
20260904123537 81 180 0.0 3.0 0.00 0.00 0.00 100 1017.4
20260904123036 81 164 0.0 0.0 0.00 0.00 0.00 100 1017.4
20260904122536 80 157 0.0 0.0 0.00 0.00 0.00 100 1017.3
20260904122037 80 157 0.0 0.0 0.00 0.00 0.00 100 1017.2
20260904121539 79 157 0.0 0.0 0.00 0.00 0.00 100 1017.2
20260904121036 79 157 0.0 0.0 0.00 0.00 0.00 100 1017.4
20260904120539 79 157 0.0 0.0 0.00 0.00 0.00 100 1017.2
20260904120034 79 157 0.0 0.0 0.00 0.00 0.00 100 1017.1
20260904115533 79 157 0.0 0.0 0.00 0.00 0.00 100 1017.0
20260904115034 79 157 0.0 0.0 0.00 0.00 0.00 100 1017.0
20260904114534 79 157 0.0 0.0 0.00 0.00 0.00 100 1017.0
20260904114034 79 157 0.0 0.0 0.00 0.00 0.00 100 1017.0
20260904113535 79 157 0.0 0.0 0.00 0.00 0.00 100 1016.9
20260904113035 79 157 0.0 0.0 0.00 0.00 0.00 100 1016.8
20260904112533 79 157 0.0 0.0 0.00 0.00 0.00 100 1016.8
20260904112032 79 157 0.0 0.0 0.00 0.00 0.00 100 1016.8
20260904111539 79 156 0.0 0.0 0.00 0.00 0.00 100 1016.7
20260904111031 79 156 0.0 0.0 0.00 0.00 0.00 100 1016.7
20260904110530 79 156 0.0 0.0 0.00 0.00 0.00 100 1016.5
20260904110030 79 156 0.0 0.0 0.00 0.00 0.00 100 1016.5
20260904105532 79 156 0.0 0.0 0.00 0.00 0.00 100 1016.5
20260904105029 79 156 0.0 0.0 0.00 0.00 0.00 100 1016.5
20260904104534 79 156 0.0 0.0 0.00 0.00 0.00 100 1016.5
20260904104032 79 156 0.0 0.0 0.00 0.00 0.00 100 1016.5
20260904103529 79 156 0.0 0.0 0.00 0.00 0.00 100 1016.5
20260904103029 79 156 0.0 0.0 0.00 0.00 0.00 100 1016.5
20260904102535 79 156 0.0 0.0 0.00 0.00 0.00 100 1016.3
20260904102029 79 156 0.0 1.0 0.00 0.00 0.00 100 1016.3
20260904101529 79 156 0.0 1.0 0.00 0.00 0.00 100 1016.2
20260904101029 79 155 0.0 0.0 0.00 0.00 0.00 100 1016.1
20260904100529 79 155 0.0 0.0 0.00 0.00 0.00 100 1016.1
20260904100029 79 155 0.0 0.0 0.00 0.00 0.00 100 1016.0
20260904095528 79 155 0.0 2.0 0.00 0.00 0.00 100 1015.9
20260904095028 79 155 0.0 2.0 0.00 0.00 0.00 100 1016.0
20260904094527 79 155 0.0 2.0 0.00 0.00 0.00 100 1016.0
20260904094026 79 155 0.0 0.0 0.00 0.00 0.00 100 1015.9
20260904093527 80 155 0.0 0.0 0.00 0.00 0.00 100 1015.9
20260904093026 80 155 0.0 0.0 0.00 0.00 0.00 100 1016.0
20260904092528 80 155 0.0 0.0 0.00 0.00 0.00 100 1015.9
20260904092026 80 155 0.0 0.0 0.00 0.00 0.00 100 1015.9
20260904091526 80 155 0.0 0.0 0.00 0.00 0.00 100 1015.8
20260904091024 80 155 0.0 0.0 0.00 0.00 0.00 100 1015.8
20260904090526 80 155 0.0 0.0 0.00 0.00 0.00 100 1015.8
20260904090030 80 155 0.0 0.0 0.00 0.00 0.00 100 1015.8
20260904085526 80 155 0.0 0.0 0.00 0.00 0.00 100 1015.8
20260904085024 80 155 0.0 0.0 0.00 0.00 0.00 100 1015.7
20260904084525 80 155 0.0 0.0 0.00 0.00 0.00 100 1015.7
20260904084126 80 155 0.0 0.0 0.00 0.00 0.00 100 1015.8
20260904083522 80 155 0.0 0.0 0.00 0.00 0.00 100 1015.7
20260904083021 80 155 0.0 0.0 0.00 0.00 0.00 100 1015.7
20260904082522 80 155 0.0 0.0 0.00 0.00 0.00 100 1015.7
20260904082021 81 155 0.0 0.0 0.00 0.00 0.00 100 1015.8
20260904081521 81 155 0.0 2.0 0.00 0.00 0.00 100 1015.8
20260904081021 81 155 0.0 2.0 0.00 0.00 0.00 100 1015.7
20260904080521 81 155 0.0 3.0 0.00 0.00 0.00 100 1015.7
20260904080021 81 155 0.0 3.0 0.00 0.00 0.00 100 1015.6
20260904075520 81 154 1.0 3.0 0.00 0.00 0.00 100 1015.5
20260904075020 81 153 2.0 3.0 0.00 0.00 0.00 100 1015.6
20260904074530 81 153 0.0 2.0 0.00 0.00 0.00 100 1015.6
20260904074020 81 154 0.0 0.0 0.00 0.00 0.00 100 1015.4
20260904073523 81 154 0.0 0.0 0.00 0.00 0.00 100 1015.5
20260904073020 81 154 0.0 0.0 0.00 0.00 0.00 100 1015.4
20260904072520 81 154 0.0 0.0 0.00 0.00 0.00 100 1015.5